COOK73 UITT-UUYY

Flight info

Callsign COOK73
Flight time N/A
Altitude 36000
Route NONLI4K NONLI W273 LIMKI G124 TIKUS G490 SEVIK P989 NETLU T756 SOGTE N174 UGBAT UGBAT1M
Aircraft C25C/M-SDE2E3FGHRWXY/LB1

Departure

Time N/A
Airport Ust-Kut Airport (UITT)

Arrival

Time 2026-04-29 22:04
Airport Syktyvkar Airport (UUYY)
Time Latitude Longitude Altitude Speed Heading
2026-04-29 21:06 62.50481 61.66812 35941 ft 395 kts 265°
2026-04-29 21:06 62.50447 61.60862 35939 ft 395 kts 265°
2026-04-29 21:07 62.50375 61.48939 35933 ft 396 kts 265°
2026-04-29 21:07 62.50293 61.36997 35935 ft 397 kts 265°
2026-04-29 21:08 62.50199 61.25027 35937 ft 398 kts 265°
2026-04-29 21:08 62.50096 61.13135 35942 ft 398 kts 265°
2026-04-29 21:09 62.49983 61.01138 35941 ft 399 kts 265°
2026-04-29 21:09 62.49859 60.89147 35940 ft 399 kts 265°
2026-04-29 21:10 62.49722 60.77142 35936 ft 399 kts 265°
2026-04-29 21:10 62.49577 60.65134 35932 ft 399 kts 265°
2026-04-29 21:11 62.49423 60.53123 35933 ft 399 kts 265°
2026-04-29 21:11 62.49257 60.41121 35935 ft 399 kts 265°
2026-04-29 21:12 62.49080 60.29107 35936 ft 399 kts 265°
2026-04-29 21:12 62.48895 60.17098 35929 ft 399 kts 264°
2026-04-29 21:13 62.48698 60.05095 35933 ft 399 kts 264°
2026-04-29 21:13 62.48490 59.93086 35931 ft 400 kts 264°
2026-04-29 21:14 62.48272 59.81072 35932 ft 400 kts 264°
2026-04-29 21:14 62.48045 59.69065 35931 ft 399 kts 264°
2026-04-29 21:15 62.47827 59.57059 35933 ft 400 kts 266°
2026-04-29 21:15 62.47840 59.45011 35929 ft 401 kts 266°
2026-04-29 21:16 62.47816 59.33049 35931 ft 401 kts 266°
2026-04-29 21:16 62.47798 59.20981 35932 ft 401 kts 266°
2026-04-29 21:17 62.47761 59.08919 35928 ft 401 kts 266°
2026-04-29 21:17 62.47720 58.96851 35923 ft 401 kts 266°
2026-04-29 21:18 62.47665 58.84783 35926 ft 401 kts 266°
2026-04-29 21:18 62.47599 58.72686 35924 ft 402 kts 266°
2026-04-29 21:19 62.47524 58.60690 35923 ft 401 kts 266°
2026-04-29 21:19 62.47439 58.48623 35924 ft 401 kts 266°
2026-04-29 21:20 62.47343 58.36559 35918 ft 401 kts 266°
2026-04-29 21:20 62.47236 58.24501 35914 ft 401 kts 266°
2026-04-29 21:21 62.47119 58.12447 35911 ft 401 kts 266°
2026-04-29 21:21 62.46991 58.00386 35913 ft 401 kts 266°
2026-04-29 21:22 62.46855 57.88327 35910 ft 402 kts 266°
2026-04-29 21:22 62.46707 57.76257 35906 ft 402 kts 266°
2026-04-29 21:23 62.46548 57.64181 35902 ft 402 kts 265°
2026-04-29 21:23 62.46379 57.52101 35899 ft 402 kts 265°
2026-04-29 21:24 62.46198 57.40006 35897 ft 403 kts 265°
2026-04-29 21:24 62.46007 57.27899 35897 ft 403 kts 265°
2026-04-29 21:25 62.45805 57.15792 35888 ft 403 kts 265°
2026-04-29 21:25 62.45595 57.03748 35885 ft 403 kts 265°
2026-04-29 21:26 62.45373 56.91629 35886 ft 404 kts 265°
2026-04-29 21:26 62.45140 56.79496 35883 ft 404 kts 265°
2026-04-29 21:27 62.44938 56.69415 35883 ft 404 kts 265°
2026-04-29 21:27 62.44642 56.55224 35880 ft 405 kts 265°
2026-04-29 21:28 62.44376 56.43080 35879 ft 405 kts 265°
2026-04-29 21:28 62.44100 56.30924 35877 ft 405 kts 265°
2026-04-29 21:29 62.43816 56.18846 35875 ft 406 kts 265°
2026-04-29 21:29 62.43519 56.06675 35872 ft 406 kts 265°
2026-04-29 21:30 62.43210 55.94506 35871 ft 406 kts 265°
2026-04-29 21:30 62.42890 55.82325 35871 ft 406 kts 265°
2026-04-29 21:31 62.42560 55.70151 35865 ft 407 kts 265°
2026-04-29 21:31 62.42220 55.57963 35866 ft 407 kts 265°
2026-04-29 21:32 62.41869 55.45762 35866 ft 407 kts 264°
2026-04-29 21:32 62.41507 55.33565 35862 ft 407 kts 264°
2026-04-29 21:33 62.41132 55.21363 35859 ft 408 kts 264°
2026-04-29 21:33 62.40749 55.09153 35861 ft 408 kts 264°
2026-04-29 21:34 62.40385 54.96925 35862 ft 408 kts 264°
2026-04-29 21:34 62.40001 54.84781 35853 ft 409 kts 264°
2026-04-29 21:35 62.39605 54.72551 35854 ft 409 kts 264°
2026-04-29 21:35 62.39203 54.60393 35288 ft 401 kts 264°
2026-04-29 21:35 62.39000 54.54434 34765 ft 397 kts 264°
2026-04-29 21:36 62.38798 54.48515 34246 ft 394 kts 264°
2026-04-29 21:36 62.38593 54.42650 33712 ft 391 kts 264°
2026-04-29 21:36 62.38390 54.36843 33170 ft 387 kts 264°
2026-04-29 21:36 62.38186 54.31102 32662 ft 382 kts 264°
2026-04-29 21:37 62.38051 54.27340 32331 ft 379 kts 264°
2026-04-29 21:37 62.37778 54.19820 31663 ft 374 kts 265°
2026-04-29 21:37 62.37573 54.14268 31171 ft 370 kts 265°
2026-04-29 21:37 62.37439 54.10622 30848 ft 368 kts 265°
2026-04-29 21:38 62.37232 54.05156 30366 ft 364 kts 265°
2026-04-29 21:38 62.37027 53.99732 29881 ft 361 kts 264°
2026-04-29 21:38 62.36609 53.94433 29355 ft 357 kts 257°
2026-04-29 21:38 62.35890 53.89364 28887 ft 352 kts 250°
2026-04-29 21:39 62.34905 53.84571 28425 ft 348 kts 245°
2026-04-29 21:39 62.33884 53.79888 27970 ft 343 kts 246°
2026-04-29 21:39 62.32879 53.75258 27518 ft 340 kts 246°
2026-04-29 21:39 62.31886 53.70681 27073 ft 336 kts 246°
2026-04-29 21:40 62.30896 53.66156 26628 ft 333 kts 246°
2026-04-29 21:40 62.29912 53.61674 26192 ft 330 kts 246°
2026-04-29 21:40 62.28940 53.57235 25758 ft 327 kts 246°
2026-04-29 21:40 62.27972 53.52844 25328 ft 324 kts 246°
2026-04-29 21:41 62.27014 53.48484 24903 ft 322 kts 246°
2026-04-29 21:41 62.26058 53.44164 24481 ft 319 kts 246°
2026-04-29 21:41 62.25110 53.39879 24059 ft 317 kts 246°
2026-04-29 21:41 62.24166 53.35621 23643 ft 315 kts 246°
2026-04-29 21:42 62.23237 53.31444 23204 ft 313 kts 245°
2026-04-29 21:42 62.22306 53.27256 22782 ft 309 kts 245°
2026-04-29 21:42 62.21383 53.23130 22376 ft 306 kts 245°
2026-04-29 21:42 62.20469 53.19026 21973 ft 304 kts 245°
2026-04-29 21:43 62.19553 53.14952 21572 ft 302 kts 245°
2026-04-29 21:43 62.18642 53.10878 21172 ft 302 kts 245°
2026-04-29 21:43 62.17730 53.06834 20780 ft 301 kts 245°
2026-04-29 21:43 62.16833 53.02844 20386 ft 301 kts 244°
2026-04-29 21:44 62.15920 52.98801 19989 ft 302 kts 245°
2026-04-29 21:44 62.15003 52.94748 19589 ft 303 kts 244°
2026-04-29 21:44 62.14083 52.90679 19183 ft 304 kts 244°
2026-04-29 21:44 62.13157 52.86611 18788 ft 305 kts 244°
2026-04-29 21:45 62.12233 52.82530 18380 ft 305 kts 244°
2026-04-29 21:45 62.11296 52.78436 17960 ft 306 kts 244°
2026-04-29 21:45 62.10368 52.74357 17548 ft 305 kts 244°
2026-04-29 21:45 62.09439 52.70307 17149 ft 303 kts 244°
2026-04-29 21:46 62.08516 52.66266 16745 ft 303 kts 243°
2026-04-29 21:46 62.07589 52.62238 16343 ft 302 kts 243°
2026-04-29 21:46 62.06667 52.58224 15946 ft 301 kts 243°
2026-04-29 21:46 62.05745 52.54223 15551 ft 300 kts 243°
2026-04-29 21:47 62.04825 52.50240 15151 ft 299 kts 243°
2026-04-29 21:47 62.03906 52.46262 14761 ft 299 kts 243°
2026-04-29 21:47 62.02996 52.42343 14369 ft 299 kts 243°
2026-04-29 21:47 62.02083 52.38398 13976 ft 292 kts 243°
2026-04-29 21:48 62.01190 52.34577 13588 ft 279 kts 243°
2026-04-29 21:48 62.00361 52.30998 13210 ft 268 kts 242°
2026-04-29 21:48 61.99542 52.27506 12863 ft 260 kts 242°
2026-04-29 21:48 61.98752 52.24114 12528 ft 253 kts 242°
2026-04-29 21:49 61.97974 52.20794 12191 ft 248 kts 242°
2026-04-29 21:49 61.97247 52.17491 11874 ft 245 kts 245°
2026-04-29 21:49 61.96528 52.14245 11553 ft 241 kts 242°
2026-04-29 21:49 61.95796 52.11052 11234 ft 239 kts 243°
2026-04-29 21:50 61.95080 52.07873 10923 ft 238 kts 243°
2026-04-29 21:50 61.94381 52.04702 10612 ft 236 kts 243°
2026-04-29 21:50 61.93679 52.01557 10304 ft 236 kts 243°
2026-04-29 21:50 61.92976 51.98416 9993 ft 235 kts 243°
2026-04-29 21:51 61.92276 51.95283 9680 ft 235 kts 243°
2026-04-29 21:51 61.91574 51.92162 9356 ft 234 kts 243°
2026-04-29 21:51 61.90174 51.85924 8724 ft 235 kts 243°
2026-04-29 21:52 61.89470 51.82805 8423 ft 234 kts 243°
2026-04-29 21:52 61.88773 51.79694 8112 ft 233 kts 243°
2026-04-29 21:52 61.88070 51.76597 7803 ft 233 kts 244°
2026-04-29 21:52 61.87373 51.73502 7500 ft 232 kts 244°
2026-04-29 21:53 61.86675 51.70430 7195 ft 231 kts 244°
2026-04-29 21:53 61.85978 51.67355 6880 ft 231 kts 244°
2026-04-29 21:53 61.85292 51.64326 6584 ft 231 kts 244°
2026-04-29 21:53 61.84593 51.61266 6280 ft 231 kts 244°
2026-04-29 21:54 61.83897 51.58199 5961 ft 231 kts 244°
2026-04-29 21:54 61.83198 51.55137 5654 ft 231 kts 245°
2026-04-29 21:54 61.82499 51.52080 5347 ft 230 kts 244°
2026-04-29 21:54 61.81963 51.48902 5044 ft 229 kts 254°
2026-04-29 21:55 61.81490 51.45678 4749 ft 229 kts 252°
2026-04-29 21:55 61.81006 51.42501 4442 ft 223 kts 252°
2026-04-29 21:55 61.80535 51.39432 4143 ft 216 kts 252°
2026-04-29 21:55 61.80088 51.36452 3859 ft 210 kts 253°
2026-04-29 21:56 61.79650 51.33548 3594 ft 205 kts 253°
2026-04-29 21:56 61.79216 51.30699 3322 ft 202 kts 253°
2026-04-29 21:56 61.78796 51.27920 3068 ft 199 kts 253°
2026-04-29 21:56 61.78372 51.25144 2806 ft 198 kts 253°
2026-04-29 21:57 61.77955 51.22403 2659 ft 191 kts 253°
2026-04-29 21:57 61.77547 51.19736 2445 ft 190 kts 254°
2026-04-29 21:57 61.77461 51.17009 2318 ft 185 kts 280°
2026-04-29 21:57 61.77873 51.14489 2297 ft 180 kts 290°
2026-04-29 21:58 61.78344 51.12034 2287 ft 181 kts 290°
2026-04-29 21:58 61.78834 51.09545 2285 ft 185 kts 290°
2026-04-29 21:58 61.79323 51.07004 2285 ft 188 kts 290°
2026-04-29 21:58 61.79816 51.04425 2291 ft 190 kts 290°
2026-04-29 21:59 61.80197 51.01757 2285 ft 190 kts 271°
2026-04-29 21:59 61.79942 50.99028 2287 ft 191 kts 248°
2026-04-29 21:59 61.79137 50.96922 2301 ft 176 kts 223°
2026-04-29 21:59 61.78109 50.95832 2295 ft 153 kts 207°
2026-04-29 22:00 61.77233 50.95104 2283 ft 120 kts 209°
2026-04-29 22:00 61.76514 50.94512 2278 ft 105 kts 210°
2026-04-29 22:00 61.75861 50.93962 2277 ft 99 kts 210°
2026-04-29 22:00 61.75246 50.93411 2290 ft 97 kts 212°
2026-04-29 22:01 61.74597 50.92884 2272 ft 101 kts 211°
2026-04-29 22:01 61.73928 50.92307 2172 ft 107 kts 209°
2026-04-29 22:01 61.73227 50.91721 2006 ft 111 kts 211°
2026-04-29 22:01 61.72525 50.91125 1851 ft 107 kts 209°
2026-04-29 22:02 61.71839 50.90532 1733 ft 108 kts 207°
2026-04-29 22:02 61.71144 50.89938 1554 ft 107 kts 210°
2026-04-29 22:02 61.70429 50.89352 1377 ft 112 kts 208°
2026-04-29 22:02 61.69710 50.88736 1212 ft 112 kts 206°
2026-04-29 22:03 61.69008 50.88150 1045 ft 105 kts 206°
2026-04-29 22:03 61.68349 50.87589 898 ft 101 kts 205°
2026-04-29 22:03 61.67711 50.87055 756 ft 98 kts 205°
2026-04-29 22:03 61.67057 50.86503 634 ft 105 kts 204°
2026-04-29 22:04 61.66388 50.85935 488 ft 99 kts 203°
2026-04-29 22:04 61.65770 50.85426 339 ft 92 kts 204°
2026-04-29 22:04 61.65194 50.84919 319 ft 79 kts 195°
2026-04-29 22:04 61.64902 50.84704 320 ft 13 kts 202°
2026-04-29 22:05 61.64736 50.84562 321 ft 38 kts 202°
2026-04-29 22:05 61.64586 50.84398 321 ft 17 kts 208°
2026-04-29 22:05 61.64547 50.84439 323 ft 7 kts 12°
2026-04-29 22:06 61.64628 50.84481 322 ft 16 kts 18°
2026-04-29 22:06 61.64760 50.84585 322 ft 24 kts 21°
2026-04-29 22:06 61.64939 50.84734 320 ft 30 kts 21°
2026-04-29 22:06 61.65135 50.84899 318 ft 31 kts 22°
2026-04-29 22:07 61.65309 50.85043 319 ft 15 kts 21°
2026-04-29 22:07 61.65411 50.85128 318 ft 17 kts 21°
2026-04-29 22:07 61.65528 50.85225 315 ft 19 kts 22°
2026-04-29 22:07 61.65630 50.85311 314 ft 13 kts 21°
2026-04-29 22:08 61.65707 50.85437 313 ft 16 kts 61°
2026-04-29 22:08 61.65753 50.85617 313 ft 7 kts 62°
2026-04-29 22:08 61.65779 50.85723 313 ft 9 kts 61°
2026-04-29 22:08 61.65815 50.85855 313 ft 11 kts 60°
2026-04-29 22:09 61.65802 50.85948 313 ft 5 kts 158°
2026-04-29 22:09 61.65762 50.85979 313 ft 7 kts 160°
2026-04-29 22:09 61.65751 50.85987 313 ft 1 kts 160°
2026-04-29 22:09 61.65737 50.85997 321 ft 3 kts 160°
2026-04-29 22:10 61.65711 50.86015 313 ft 5 kts 165°
2026-04-29 22:10 61.65680 50.86031 313 ft 3 kts 167°
2026-04-29 22:10 61.65654 50.86040 313 ft 5 kts 177°
2026-04-29 22:10 61.65627 50.86069 313 ft 4 kts 89°
2026-04-29 22:11 61.65637 50.86117 313 ft 0 kts 89°